User: anonymous   Login
Location: Unspecified
(0.0000°N, 0.0000°E)
Time: 11:48:34
(UTC+00:00)
Language:

Envisat - Orbit

View from above orbital plane
View from above orbital plane
View from above satellite
View from above satellite

Ground track
Ground track

The orbit data is extracted from the following two-line orbital elements,

1 27386U 02009A   21023.02454316  .00000028  00000-0  22734-4 0  9992
2 27386  98.1419  24.5651 0001182  87.3777 337.3252 14.38009596990170
Epoch (UTC): 23 January 2021 00:35:20
Eccentricity: 0.0001182
inclination: 98.1419°
perigee height: 764 km
apogee height: 766 km
right ascension of ascending node: 24.5651°
argument of perigee: 87.3777°
revolutions per day: 14.38009596
mean anomaly at epoch: 337.3252°
orbit number at epoch: 99017

The dashed part of the orbit path shows where the satellite is in the earth's shadow,  

DLR